﻿_id,日時,平均風速(m/s),平均風向,最大瞬間風速(m/s),最大風速時風向,気温(℃),湿度(%),10分間移動積算雨量(mm),1時間移動積算雨量(mm),日雨量(mm),累計雨量(mm),日射(日積算)(MJ/m2),日照(日積算)(min),現地気圧(hPa),海面気圧(hPa)
1,2021-03-15T00:00:00,0.8,西,1.6,西,4.2,89.8,0,0,0,0,17.45,542,1004.9,1019.3
2,2021-03-15T00:01:00,0.7,西,1.3,南西,4.1,90.5,0,0,0,0,0,0,1005,1019.4
3,2021-03-15T00:02:00,0.6,西,1.3,南西,4.1,90,0,0,0,0,0,0,1005,1019.4
4,2021-03-15T00:03:00,0.5,西南西,1.3,南西,4,89.7,0,0,0,0,0,0,1005,1019.4
5,2021-03-15T00:04:00,0.5,南西,1.3,南西,4.1,90.2,0,0,0,0,0,0,1004.9,1019.3
6,2021-03-15T00:05:00,0.4,南西,1.3,南西,3.8,89.6,0,0,0,0,0,0,1004.9,1019.4
7,2021-03-15T00:06:00,0.4,南,1.3,南西,3.7,89.5,0,0,0,0,0,0,1004.9,1019.4
8,2021-03-15T00:07:00,0.5,南南東,1.4,東北東,3.7,89.5,0,0,0,0,0,0,1004.9,1019.4
9,2021-03-15T00:08:00,0.5,南東,1.4,東北東,3.7,89.8,0,0,0,0,0,0,1004.9,1019.4
10,2021-03-15T00:09:00,0.6,東南東,1.4,東北東,3.6,90.2,0,0,0,0,0,0,1004.9,1019.4
11,2021-03-15T00:10:00,0.6,東南東,1.4,東北東,3.6,90.4,0,0,0,0,0,0,1004.9,1019.4
12,2021-03-15T00:11:00,0.7,東南東,1.4,東北東,3.6,90.6,0,0,0,0,0,0,1004.8,1019.3
13,2021-03-15T00:12:00,0.8,東,1.4,東北東,3.8,91.3,0,0,0,0,0,0,1004.8,1019.2
14,2021-03-15T00:13:00,0.8,東,1.4,東北東,3.9,92,0,0,0,0,0,0,1004.9,1019.3
15,2021-03-15T00:14:00,0.8,東北東,1.4,東北東,4,92.4,0,0,0,0,0,0,1004.9,1019.3
16,2021-03-15T00:15:00,0.7,東北東,1.4,東北東,3.8,92.1,0,0,0,0,0,0,1004.9,1019.4
17,2021-03-15T00:16:00,0.7,東北東,1.4,東北東,4,92,0,0,0,0,0,0,1004.8,1019.2
18,2021-03-15T00:17:00,0.6,東北東,1.4,東,3.9,92.1,0,0,0,0,0,0,1004.8,1019.2
19,2021-03-15T00:18:00,0.5,東北東,1.4,東,4.2,92.3,0,0,0,0,0,0,1004.8,1019.2
20,2021-03-15T00:19:00,0.4,北東,1.3,東,4,92.2,0,0,0,0,0,0,1004.8,1019.2
21,2021-03-15T00:20:00,0.4,北北東,1,北東,3.8,91.4,0,0,0,0,0,0,1004.8,1019.2
22,2021-03-15T00:21:00,0.3,北北東,1,北東,3.9,91.3,0,0,0,0,0,0,1004.8,1019.2
23,2021-03-15T00:22:00,0.3,北,0.8,東北東,3.9,91.3,0,0,0,0,0,0,1004.8,1019.2
24,2021-03-15T00:23:00,0.3,北北西,0.8,東北東,3.8,91.1,0,0,0,0,0,0,1004.8,1019.2
25,2021-03-15T00:24:00,0.2,静穏,0.7,西北西,3.7,90.5,0,0,0,0,0,0,1004.8,1019.3
26,2021-03-15T00:25:00,0.3,北西,0.7,西北西,3.6,90.5,0,0,0,0,0,0,1004.7,1019.2
27,2021-03-15T00:26:00,0.3,北西,0.8,北,3.6,90.6,0,0,0,0,0,0,1004.7,1019.2
28,2021-03-15T00:27:00,0.4,北西,0.9,西北西,3.7,91,0,0,0,0,0,0,1004.7,1019.2
29,2021-03-15T00:28:00,0.4,北西,0.9,西北西,3.7,91.2,0,0,0,0,0,0,1004.7,1019.2
30,2021-03-15T00:29:00,0.4,北西,1.1,西北西,3.7,91.1,0,0,0,0,0,0,1004.7,1019.2
31,2021-03-15T00:30:00,0.5,北西,1.1,西北西,3.7,91,0,0,0,0,0,0,1004.7,1019.2
32,2021-03-15T00:31:00,0.5,北西,1.1,西北西,3.6,90.8,0,0,0,0,0,0,1004.8,1019.3
33,2021-03-15T00:32:00,0.5,北西,1.1,西北西,3.6,90.9,0,0,0,0,0,0,1004.8,1019.3
34,2021-03-15T00:33:00,0.6,北西,1.4,北西,3.6,90.8,0,0,0,0,0,0,1004.8,1019.3
35,2021-03-15T00:34:00,0.6,北西,1.4,北西,3.5,90.8,0,0,0,0,0,0,1004.8,1019.3
36,2021-03-15T00:35:00,0.6,北西,1.4,北西,3.5,90.7,0,0,0,0,0,0,1004.8,1019.3
37,2021-03-15T00:36:00,0.6,北西,1.4,北西,3.6,90.8,0,0,0,0,0,0,1004.8,1019.3
38,2021-03-15T00:37:00,0.5,北西,1.4,北西,3.7,91.3,0,0,0,0,0,0,1004.9,1019.4
39,2021-03-15T00:38:00,0.5,北西,1.4,北西,3.6,91.2,0,0,0,0,0,0,1004.9,1019.4
40,2021-03-15T00:39:00,0.5,北西,1.4,北西,3.6,90.8,0,0,0,0,0,0,1004.8,1019.3
41,2021-03-15T00:40:00,0.5,北西,1.4,北西,3.5,90.9,0,0,0,0,0,0,1004.9,1019.4
42,2021-03-15T00:41:00,0.4,北西,1.4,北西,3.4,90.8,0,0,0,0,0,0,1004.9,1019.4
43,2021-03-15T00:42:00,0.3,北西,1.4,北西,3.5,90.7,0,0,0,0,0,0,1004.9,1019.4
44,2021-03-15T00:43:00,0.3,北北西,1,北西,3.5,91.3,0,0,0,0,0,0,1004.9,1019.4
45,2021-03-15T00:44:00,0.2,静穏,0.7,西北西,3.7,91.7,0,0,0,0,0,0,1004.9,1019.4
46,2021-03-15T00:45:00,0.3,北北西,1.1,西北西,3.5,91.5,0,0,0,0,0,0,1004.9,1019.4
47,2021-03-15T00:46:00,0.3,北北西,1.1,西北西,3.5,91.1,0,0,0,0,0,0,1004.9,1019.4
48,2021-03-15T00:47:00,0.3,北北西,1.1,西北西,3.5,91.2,0,0,0,0,0,0,1004.9,1019.4
49,2021-03-15T00:48:00,0.3,北北西,1.1,西北西,3.5,91.1,0,0,0,0,0,0,1005,1019.5
50,2021-03-15T00:49:00,0.3,北,1.1,西北西,3.6,91.4,0,0,0,0,0,0,1005.1,1019.6
51,2021-03-15T00:50:00,0.3,北,1.1,西北西,3.6,91.6,0,0,0,0,0,0,1005,1019.5
52,2021-03-15T00:51:00,0.3,北,1.1,西北西,3.6,91.8,0,0,0,0,0,0,1005,1019.5
53,2021-03-15T00:52:00,0.3,北,1.1,西北西,3.5,91.4,0,0,0,0,0,0,1005,1019.5
54,2021-03-15T00:53:00,0.4,北,1.1,西北西,3.5,91.2,0,0,0,0,0,0,1005,1019.5
55,2021-03-15T00:54:00,0.4,北,1.1,西北西,3.5,91.4,0,0,0,0,0,0,1005,1019.5
56,2021-03-15T00:55:00,0.4,北,1.1,北西,3.5,91.2,0,0,0,0,0,0,1005,1019.5
57,2021-03-15T00:56:00,0.3,北,1.1,北西,3.4,91,0,0,0,0,0,0,1005,1019.5
58,2021-03-15T00:57:00,0.3,北,1.1,北西,3.5,91.2,0,0,0,0,0,0,1005,1019.5
59,2021-03-15T00:58:00,0.3,北,1.1,北西,3.5,91.9,0,0,0,0,0,0,1005,1019.5
60,2021-03-15T00:59:00,0.3,北,1.1,北西,3.6,91.7,0,0,0,0,0,0,1005,1019.5
61,2021-03-15T01:00:00,0.3,北北西,0.9,北,3.6,91.7,0,0,0,0,0,0,1005.1,1019.6
62,2021-03-15T01:01:00,0.3,北北西,0.9,北,3.4,91.4,0,0,0,0,0,0,1005.1,1019.6
63,2021-03-15T01:02:00,0.3,北北西,0.9,北,3.3,90.8,0,0,0,0,0,0,1005.1,1019.6
64,2021-03-15T01:03:00,0.3,北北西,0.7,西,3.4,91.2,0,0,0,0,0,0,1005.1,1019.6
65,2021-03-15T01:04:00,0.3,北北西,0.8,西,3.4,91.3,0,0,0,0,0,0,1005.1,1019.6
66,2021-03-15T01:05:00,0.3,北北西,0.8,西,3.4,91.5,0,0,0,0,0,0,1005.1,1019.6
67,2021-03-15T01:06:00,0.3,北西,0.8,西,3.2,91.1,0,0,0,0,0,0,1005.1,1019.6
68,2021-03-15T01:07:00,0.3,北西,0.8,西,3.3,91.1,0,0,0,0,0,0,1005.1,1019.6
69,2021-03-15T01:08:00,0.4,西北西,1.2,西,3.3,91.5,0,0,0,0,0,0,1005.1,1019.6
70,2021-03-15T01:09:00,0.5,西北西,1.3,西,3.4,91.5,0,0,0,0,0,0,1005.1,1019.6
71,2021-03-15T01:10:00,0.6,西北西,1.3,西,3.5,92.2,0,0,0,0,0,0,1005.1,1019.6
72,2021-03-15T01:11:00,0.7,西北西,1.3,西,3.4,92,0,0,0,0,0,0,1005.2,1019.7
73,2021-03-15T01:12:00,0.7,西北西,1.4,西,3.5,91.7,0,0,0,0,0,0,1005.2,1019.7
74,2021-03-15T01:13:00,0.8,西,1.6,西北西,3.7,92.5,0,0,0,0,0,0,1005.2,1019.7
75,2021-03-15T01:14:00,0.9,西北西,1.6,西北西,3.7,92.3,0,0,0,0,0,0,1005.2,1019.7
76,2021-03-15T01:15:00,0.9,西,1.6,西北西,3.7,92,0,0,0,0,0,0,1005.2,1019.7
77,2021-03-15T01:16:00,1,西,1.6,西北西,3.7,91.6,0,0,0,0,0,0,1005.2,1019.7
78,2021-03-15T01:17:00,1.1,西,1.6,西北西,3.9,92,0,0,0,0,0,0,1005.3,1019.8
79,2021-03-15T01:18:00,1.1,西,1.6,西北西,3.9,91.9,0,0,0,0,0,0,1005.3,1019.8
80,2021-03-15T01:19:00,1.1,西北西,1.6,西北西,3.7,91.1,0,0,0,0,0,0,1005.3,1019.8
81,2021-03-15T01:20:00,1.1,西北西,1.6,西北西,3.6,90.1,0,0,0,0,0,0,1005.3,1019.8
82,2021-03-15T01:21:00,1.1,西,1.6,西北西,3.5,89.6,0,0,0,0,0,0,1005.3,1019.8
83,2021-03-15T01:22:00,1.1,西,1.6,西北西,3.3,89.5,0,0,0,0,0,0,1005.3,1019.8
84,2021-03-15T01:23:00,1,西,1.4,南西,3.1,88.4,0,0,0,0,0,0,1005.3,1019.8
85,2021-03-15T01:24:00,0.9,西,1.4,南西,3.1,88.7,0,0,0,0,0,0,1005.4,1019.9
86,2021-03-15T01:25:00,0.8,西,1.4,南西,3.2,89.6,0,0,0,0,0,0,1005.3,1019.8
87,2021-03-15T01:26:00,0.7,西,1.4,南西,3.3,90.2,0,0,0,0,0,0,1005.4,1019.9
88,2021-03-15T01:27:00,0.7,西,1.4,南西,3.6,91.5,0,0,0,0,0,0,1005.3,1019.8
89,2021-03-15T01:28:00,0.6,西,1.4,南西,3.5,91.6,0,0,0,0,0,0,1005.4,1019.9
90,2021-03-15T01:29:00,0.5,西,1.4,南西,3.6,91.7,0,0,0,0,0,0,1005.4,1019.9
91,2021-03-15T01:30:00,0.4,西,1.4,南西,3.6,92,0,0,0,0,0,0,1005.3,1019.8
92,2021-03-15T01:31:00,0.4,西,1.4,南西,3.5,91.3,0,0,0,0,0,0,1005.4,1019.9
93,2021-03-15T01:32:00,0.4,西,1.2,西北西,3.4,91,0,0,0,0,0,0,1005.3,1019.8
94,2021-03-15T01:33:00,0.4,西,1.2,西北西,3.5,91,0,0,0,0,0,0,1005.3,1019.8
95,2021-03-15T01:34:00,0.4,西,1.2,西北西,3.5,91.2,0,0,0,0,0,0,1005.4,1019.9
96,2021-03-15T01:35:00,0.5,西,1.2,西北西,3.6,91,0,0,0,0,0,0,1005.4,1019.9
97,2021-03-15T01:36:00,0.5,西,1.2,西北西,3.5,91.4,0,0,0,0,0,0,1005.3,1019.8
98,2021-03-15T01:37:00,0.5,西北西,1.2,西北西,3.4,90.4,0,0,0,0,0,0,1005.3,1019.8
99,2021-03-15T01:38:00,0.5,西北西,1.2,西北西,3.3,90,0,0,0,0,0,0,1005.3,1019.8
100,2021-03-15T01:39:00,0.5,西北西,1.2,西北西,3.2,89.6,0,0,0,0,0,0,1005.3,1019.8
101,2021-03-15T01:40:00,0.5,西北西,1.2,西北西,3.2,89.9,0,0,0,0,0,0,1005.4,1019.9
102,2021-03-15T01:41:00,0.5,西北西,1.2,西北西,3.3,90.2,0,0,0,0,0,0,1005.3,1019.8
103,2021-03-15T01:42:00,0.4,西北西,1,西,3.3,90.5,0,0,0,0,0,0,1005.3,1019.8
104,2021-03-15T01:43:00,0.4,西,1,西,3.2,90.1,0,0,0,0,0,0,1005.3,1019.8
105,2021-03-15T01:44:00,0.4,西北西,0.8,西,3.1,90.1,0,0,0,0,0,0,1005.3,1019.8
106,2021-03-15T01:45:00,0.4,西北西,0.8,西,3,90,0,0,0,0,0,0,1005.3,1019.8
107,2021-03-15T01:46:00,0.3,西北西,0.8,西,2.9,89.8,0,0,0,0,0,0,1005.3,1019.8
108,2021-03-15T01:47:00,0.4,西北西,0.8,西,3.1,90.1,0,0,0,0,0,0,1005.3,1019.8
109,2021-03-15T01:48:00,0.4,西北西,0.8,西,3.2,90.9,0,0,0,0,0,0,1005.3,1019.8
110,2021-03-15T01:49:00,0.4,西北西,1,北西,3.1,90.6,0,0,0,0,0,0,1005.3,1019.8
111,2021-03-15T01:50:00,0.4,西北西,1,北西,3.2,90.8,0,0,0,0,0,0,1005.3,1019.8
112,2021-03-15T01:51:00,0.4,北西,1,北西,3.1,91.1,0,0,0,0,0,0,1005.3,1019.8
113,2021-03-15T01:52:00,0.4,北西,1,北西,3,90.6,0,0,0,0,0,0,1005.3,1019.8
114,2021-03-15T01:53:00,0.4,北北西,1,北西,3.1,90.8,0,0,0,0,0,0,1005.3,1019.8
115,2021-03-15T01:54:00,0.4,北北西,1,北西,3.2,91.2,0,0,0,0,0,0,1005.4,1019.9
116,2021-03-15T01:55:00,0.4,北北西,1,北西,3.1,90.9,0,0,0,0,0,0,1005.3,1019.8
117,2021-03-15T01:56:00,0.4,北北西,1,北西,3,90.9,0,0,0,0,0,0,1005.3,1019.8
118,2021-03-15T01:57:00,0.3,北北西,1,北西,3,91,0,0,0,0,0,0,1005.2,1019.7
119,2021-03-15T01:58:00,0.3,北,1,北西,3.3,91.3,0,0,0,0,0,0,1005.3,1019.8
120,2021-03-15T01:59:00,0.2,静穏,0.7,北北東,3.1,91.6,0,0,0,0,0,0,1005.3,1019.8
121,2021-03-15T02:00:00,0.3,北,1,北北西,3.1,91.1,0,0,0,0,0,0,1005.3,1019.8
122,2021-03-15T02:01:00,0.3,北北西,1.1,北西,3.2,91.5,0,0,0,0,0,0,1005.3,1019.8
123,2021-03-15T02:02:00,0.4,北北西,1.1,北西,3.3,92.2,0,0,0,0,0,0,1005.2,1019.7
124,2021-03-15T02:03:00,0.4,北北西,1.1,北西,3.1,91.5,0,0,0,0,0,0,1005.2,1019.7
125,2021-03-15T02:04:00,0.4,北北西,1.1,北西,2.9,91.1,0,0,0,0,0,0,1005.2,1019.7
126,2021-03-15T02:05:00,0.4,北北西,1.1,北西,2.9,90.7,0,0,0,0,0,0,1005.2,1019.7
127,2021-03-15T02:06:00,0.5,北北西,1.1,北西,3,91.3,0,0,0,0,0,0,1005.1,1019.6
128,2021-03-15T02:07:00,0.5,北北西,1.4,北西,3.1,91.6,0,0,0,0,0,0,1005.1,1019.6
129,2021-03-15T02:08:00,0.6,北北西,1.4,北西,3.1,91.6,0,0,0,0,0,0,1005.1,1019.6
130,2021-03-15T02:09:00,0.6,北北西,1.4,北西,3,91.4,0,0,0,0,0,0,1005.1,1019.6
131,2021-03-15T02:10:00,0.6,北北西,1.4,北西,3,91.3,0,0,0,0,0,0,1005.1,1019.6
132,2021-03-15T02:11:00,0.5,北北西,1.4,北西,2.9,91.2,0,0,0,0,0,0,1005.1,1019.6
133,2021-03-15T02:12:00,0.6,北北西,1.4,北西,3,91.3,0,0,0,0,0,0,1005.1,1019.6
134,2021-03-15T02:13:00,0.6,北北西,1.4,北西,3,91.4,0,0,0,0,0,0,1005.1,1019.6
135,2021-03-15T02:14:00,0.7,北北西,1.4,北西,3,91.3,0,0,0,0,0,0,1005.1,1019.6
136,2021-03-15T02:15:00,0.7,北北西,1.4,北西,3.1,91.5,0,0,0,0,0,0,1005.1,1019.6
137,2021-03-15T02:16:00,0.7,北北西,1.4,北西,2.9,91.2,0,0,0,0,0,0,1005.1,1019.6
138,2021-03-15T02:17:00,0.6,北北西,1.4,北西,2.8,90.8,0,0,0,0,0,0,1005.1,1019.6
139,2021-03-15T02:18:00,0.6,北北西,1.4,北西,2.8,90.8,0,0,0,0,0,0,1005.1,1019.6
140,2021-03-15T02:19:00,0.6,北北西,1.4,北西,2.8,91.1,0,0,0,0,0,0,1005.1,1019.6
141,2021-03-15T02:20:00,0.6,北北西,1.4,北西,3,91.4,0,0,0,0,0,0,1005.1,1019.6
142,2021-03-15T02:21:00,0.6,北北西,1.4,北西,2.9,91.3,0,0,0,0,0,0,1005.1,1019.6
143,2021-03-15T02:22:00,0.6,北北西,1.4,北西,2.8,91,0,0,0,0,0,0,1005.1,1019.6
144,2021-03-15T02:23:00,0.5,北北西,1.3,北西,3,91.4,0,0,0,0,0,0,1005.1,1019.6
145,2021-03-15T02:24:00,0.5,北北西,1.3,北西,2.9,91.5,0,0,0,0,0,0,1005,1019.5
146,2021-03-15T02:25:00,0.5,北北西,1.3,北西,2.8,91.1,0,0,0,0,0,0,1005.1,1019.6
147,2021-03-15T02:26:00,0.5,北北西,1.3,北西,2.7,91.1,0,0,0,0,0,0,1005.1,1019.6
148,2021-03-15T02:27:00,0.5,北西,1.3,北西,2.8,91.1,0,0,0,0,0,0,1005.1,1019.6
149,2021-03-15T02:28:00,0.5,北西,1.3,北西,2.8,91.4,0,0,0,0,0,0,1005.1,1019.6
150,2021-03-15T02:29:00,0.5,北西,0.9,西北西,2.9,91.7,0,0,0,0,0,0,1005,1019.5
151,2021-03-15T02:30:00,0.5,北西,0.9,西北西,2.8,91.7,0,0,0,0,0,0,1005,1019.5
152,2021-03-15T02:31:00,0.5,北西,0.9,西北西,2.6,91,0,0,0,0,0,0,1005,1019.5
153,2021-03-15T02:32:00,0.5,西北西,0.9,西北西,2.6,90.9,0,0,0,0,0,0,1005,1019.5
154,2021-03-15T02:33:00,0.5,西北西,1.1,西,2.7,91,0,0,0,0,0,0,1005,1019.5
155,2021-03-15T02:34:00,0.6,西北西,1.1,西,2.7,91.5,0,0,0,0,0,0,1005,1019.5
156,2021-03-15T02:35:00,0.6,西北西,1.1,西,2.6,91.3,0,0,0,0,0,0,1005,1019.5
157,2021-03-15T02:36:00,0.5,西北西,1.1,西,2.8,91.7,0,0,0,0,0,0,1005,1019.5
158,2021-03-15T02:37:00,0.5,西北西,1.1,西,2.9,92.1,0,0,0,0,0,0,1005,1019.5
159,2021-03-15T02:38:00,0.5,西北西,1.1,西,2.8,91.8,0,0,0,0,0,0,1005,1019.5
160,2021-03-15T02:39:00,0.4,西北西,1.1,西,2.8,91.7,0,0,0,0,0,0,1005.1,1019.6
161,2021-03-15T02:40:00,0.4,西北西,1.1,西,2.8,91.7,0,0,0,0,0,0,1005.1,1019.6
162,2021-03-15T02:41:00,0.5,西北西,1.1,西,2.8,91.5,0,0,0,0,0,0,1005.1,1019.6
163,2021-03-15T02:42:00,0.5,西北西,1.1,西,2.7,91.7,0,0,0,0,0,0,1005.1,1019.6
164,2021-03-15T02:43:00,0.4,西北西,0.9,西,2.8,91.2,0,0,0,0,0,0,1005.1,1019.6
165,2021-03-15T02:44:00,0.3,北西,0.7,西,3,91.9,0,0,0,0,0,0,1005.1,1019.6
166,2021-03-15T02:45:00,0.3,北西,0.7,西,3,92.3,0,0,0,0,0,0,1005.1,1019.6
167,2021-03-15T02:46:00,0.3,北西,0.7,西,2.9,92.2,0,0,0,0,0,0,1005.1,1019.6
168,2021-03-15T02:47:00,0.3,北西,0.7,西,2.9,91.8,0,0,0,0,0,0,1005.1,1019.6
169,2021-03-15T02:48:00,0.3,北西,0.7,西,3,91.7,0,0,0,0,0,0,1005.1,1019.6
170,2021-03-15T02:49:00,0.3,北西,0.9,南西,3.1,92.1,0,0,0,0,0,0,1005.1,1019.6
171,2021-03-15T02:50:00,0.3,北西,1,西,2.7,91.1,0,0,0,0,0,0,1005.2,1019.7
172,2021-03-15T02:51:00,0.3,西北西,1,西,2.9,90.9,0,0,0,0,0,0,1005.2,1019.7
173,2021-03-15T02:52:00,0.3,西北西,1,西,2.9,91.1,0,0,0,0,0,0,1005.2,1019.7
174,2021-03-15T02:53:00,0.3,西北西,1,西,2.7,90.9,0,0,0,0,0,0,1005.2,1019.7
175,2021-03-15T02:54:00,0.4,西北西,1,西,2.8,90.8,0,0,0,0,0,0,1005.2,1019.7
176,2021-03-15T02:55:00,0.4,西北西,1,西,2.7,90.8,0,0,0,0,0,0,1005.2,1019.7
177,2021-03-15T02:56:00,0.4,西,1,西,2.8,91.4,0,0,0,0,0,0,1005.2,1019.7
178,2021-03-15T02:57:00,0.4,西,1,西,2.7,90.9,0,0,0,0,0,0,1005.1,1019.6
179,2021-03-15T02:58:00,0.4,西南西,1,西,2.7,90.8,0,0,0,0,0,0,1005.1,1019.6
180,2021-03-15T02:59:00,0.4,西南西,1,西,2.7,91,0,0,0,0,0,0,1005.1,1019.6
181,2021-03-15T03:00:00,0.4,南西,0.9,南南東,2.8,91.3,0,0,0,0,0,0,1005.1,1019.6
182,2021-03-15T03:01:00,0.3,南西,0.9,南南東,2.8,91.7,0,0,0,0,0,0,1005.1,1019.6
183,2021-03-15T03:02:00,0.3,南南東,0.9,南南東,2.8,91.6,0,0,0,0,0,0,1005.1,1019.6
184,2021-03-15T03:03:00,0.2,静穏,0.9,南南東,2.6,91.3,0,0,0,0,0,0,1005.1,1019.6
185,2021-03-15T03:04:00,0.2,静穏,0.9,南南東,2.6,91.1,0,0,0,0,0,0,1005.1,1019.6
186,2021-03-15T03:05:00,0.2,静穏,0.9,南南東,2.7,91.4,0,0,0,0,0,0,1005.1,1019.6
187,2021-03-15T03:06:00,0.2,静穏,0.9,南南東,2.7,91.9,0,0,0,0,0,0,1005.1,1019.6
188,2021-03-15T03:07:00,0.2,静穏,0.9,南南東,2.7,91.8,0,0,0,0,0,0,1005.1,1019.6
189,2021-03-15T03:08:00,0.2,静穏,0.7,南南西,2.6,91.7,0,0,0,0,0,0,1005,1019.5
190,2021-03-15T03:09:00,0.1,静穏,0.7,南南西,2.6,91.7,0,0,0,0,0,0,1005,1019.5
191,2021-03-15T03:10:00,0.1,静穏,0.7,南南西,2.6,91.8,0,0,0,0,0,0,1005,1019.5
192,2021-03-15T03:11:00,0.1,静穏,0.7,南南西,2.5,91.9,0,0,0,0,0,0,1005.1,1019.6
193,2021-03-15T03:12:00,0.2,静穏,1.2,北,2.6,92.3,0,0,0,0,0,0,1005.1,1019.6
194,2021-03-15T03:13:00,0.2,静穏,1.2,北,2.6,92.5,0,0,0,0,0,0,1005.1,1019.6
195,2021-03-15T03:14:00,0.2,静穏,1.2,北,2.5,92.5,0,0,0,0,0,0,1005.1,1019.6
196,2021-03-15T03:15:00,0.2,静穏,1.2,北,2.3,91.8,0,0,0,0,0,0,1005,1019.5
197,2021-03-15T03:16:00,0.3,北東,1.2,北,2.3,92.1,0,0,0,0,0,0,1005,1019.5
198,2021-03-15T03:17:00,0.2,静穏,1.2,北,2.3,92.7,0,0,0,0,0,0,1005.1,1019.6
199,2021-03-15T03:18:00,0.3,北北東,1.2,北,2.3,92.6,0,0,0,0,0,0,1005.1,1019.6
200,2021-03-15T03:19:00,0.3,北北東,1.2,北,2.5,93.1,0,0,0,0,0,0,1005.1,1019.6
201,2021-03-15T03:20:00,0.3,北北東,1.2,北,2.5,93.7,0,0,0,0,0,0,1005.1,1019.6
202,2021-03-15T03:21:00,0.3,北北東,1.2,北,2.6,93.7,0,0,0,0,0,0,1005.1,1019.6
203,2021-03-15T03:22:00,0.2,静穏,0.8,北北東,2.5,93.9,0,0,0,0,0,0,1005.1,1019.6
204,2021-03-15T03:23:00,0.1,静穏,0.6,北北東,2.5,93.5,0,0,0,0,0,0,1005.1,1019.6
205,2021-03-15T03:24:00,0.1,静穏,0.6,北北東,2.5,93.5,0,0,0,0,0,0,1005.1,1019.6
206,2021-03-15T03:25:00,0.1,静穏,0.6,北北東,2.5,93.7,0,0,0,0,0,0,1005.1,1019.6
207,2021-03-15T03:26:00,0.1,静穏,0.6,北北東,2.6,94,0,0,0,0,0,0,1005.1,1019.6
208,2021-03-15T03:27:00,0.1,静穏,0.6,北北東,2.6,94.2,0,0,0,0,0,0,1005.1,1019.6
209,2021-03-15T03:28:00,0.1,静穏,0.7,北,2.8,94.5,0,0,0,0,0,0,1005,1019.5
210,2021-03-15T03:29:00,0.1,静穏,0.7,北,2.8,94.5,0,0,0,0,0,0,1005.1,1019.6
211,2021-03-15T03:30:00,0.1,静穏,0.7,北,2.7,94.4,0,0,0,0,0,0,1005.1,1019.6
212,2021-03-15T03:31:00,0.2,静穏,0.8,北東,2.7,94,0,0,0,0,0,0,1005.1,1019.6
213,2021-03-15T03:32:00,0.2,静穏,0.8,北東,2.7,94.2,0,0,0,0,0,0,1005,1019.5
214,2021-03-15T03:33:00,0.2,静穏,0.8,北東,2.5,93.6,0,0,0,0,0,0,1005,1019.5
215,2021-03-15T03:34:00,0.2,静穏,0.8,北東,2.5,93.5,0,0,0,0,0,0,1005,1019.5
216,2021-03-15T03:35:00,0.3,北,0.8,北東,2.5,93.4,0,0,0,0,0,0,1005.1,1019.6
217,2021-03-15T03:36:00,0.3,北,0.8,北東,2.6,93.7,0,0,0,0,0,0,1005.1,1019.6
218,2021-03-15T03:37:00,0.3,北,0.8,北東,2.8,94.4,0,0,0,0,0,0,1005,1019.5
219,2021-03-15T03:38:00,0.3,北北東,0.8,北東,2.7,94.6,0,0,0,0,0,0,1005,1019.5
220,2021-03-15T03:39:00,0.3,北北東,0.8,北東,2.8,94.5,0,0,0,0,0,0,1005,1019.5
221,2021-03-15T03:40:00,0.3,北北東,0.9,北,2.7,94.2,0,0,0,0,0,0,1005,1019.5
222,2021-03-15T03:41:00,0.3,北北東,1,北,2.8,94.3,0,0,0,0,0,0,1005,1019.5
223,2021-03-15T03:42:00,0.4,北北東,1,北,2.9,94.5,0,0,0,0,0,0,1005,1019.5
224,2021-03-15T03:43:00,0.4,北,1,北,2.7,94.4,0,0,0,0,0,0,1005,1019.5
225,2021-03-15T03:44:00,0.5,北,1.1,北北東,2.8,94.2,0,0,0,0,0,0,1005,1019.5
226,2021-03-15T03:45:00,0.5,北北東,1.1,北北東,2.9,94.4,0,0,0,0,0,0,1005,1019.5
227,2021-03-15T03:46:00,0.5,北北東,1.1,北北東,2.8,94.4,0,0,0,0,0,0,1005,1019.5
228,2021-03-15T03:47:00,0.6,北北東,1.5,北北東,2.7,93.9,0,0,0,0,0,0,1005,1019.5
229,2021-03-15T03:48:00,0.6,北北東,1.5,北北東,2.9,94.1,0,0,0,0,0,0,1004.9,1019.4
230,2021-03-15T03:49:00,0.6,北北東,1.5,北北東,2.9,94.6,0,0,0,0,0,0,1005,1019.5
231,2021-03-15T03:50:00,0.7,北北東,1.5,北北東,2.9,94.5,0,0,0,0,0,0,1004.9,1019.4
232,2021-03-15T03:51:00,0.7,北北東,1.9,北北東,3,94.6,0,0,0,0,0,0,1005,1019.5
233,2021-03-15T03:52:00,0.7,北北東,1.9,北北東,2.9,94.4,0,0,0,0,0,0,1005,1019.5
234,2021-03-15T03:53:00,0.7,北北東,1.9,北北東,2.8,94.1,0,0,0,0,0,0,1005,1019.5
235,2021-03-15T03:54:00,0.7,北北東,1.9,北北東,2.8,94,0,0,0,0,0,0,1005,1019.5
236,2021-03-15T03:55:00,0.7,北北東,1.9,北北東,2.8,94.2,0,0,0,0,0,0,1004.9,1019.4
237,2021-03-15T03:56:00,0.8,北北東,1.9,北北東,2.8,94.5,0,0,0,0,0,0,1005,1019.5
238,2021-03-15T03:57:00,0.7,北北東,1.9,北北東,2.8,94.3,0,0,0,0,0,0,1005,1019.5
239,2021-03-15T03:58:00,0.7,北北東,1.9,北北東,2.9,94.5,0,0,0,0,0,0,1005,1019.5
240,2021-03-15T03:59:00,0.7,北北東,1.9,北北東,2.9,94.5,0,0,0,0,0,0,1005,1019.5
241,2021-03-15T04:00:00,0.7,北北東,1.9,北北東,2.8,94.3,0,0,0,0,0,0,1005.1,1019.6
242,2021-03-15T04:01:00,0.6,北,1.3,北北東,2.7,94,0,0,0,0,0,0,1005,1019.5
243,2021-03-15T04:02:00,0.6,北,1.3,北北東,2.6,93.6,0,0,0,0,0,0,1005,1019.5
244,2021-03-15T04:03:00,0.6,北北西,1.3,北北東,2.5,93.7,0,0,0,0,0,0,1005.1,1019.6
245,2021-03-15T04:04:00,0.6,北北西,1.2,西北西,2.7,94,0,0,0,0,0,0,1005.1,1019.6
246,2021-03-15T04:05:00,0.6,北西,1.2,西北西,2.6,94.6,0,0,0,0,0,0,1005.1,1019.6
247,2021-03-15T04:06:00,0.5,北西,1.2,西北西,2.6,94.5,0,0,0,0,0,0,1005.1,1019.6
248,2021-03-15T04:07:00,0.6,西北西,1.2,西北西,2.5,94.2,0,0,0,0,0,0,1005.1,1019.6
249,2021-03-15T04:08:00,0.6,西北西,1.2,西北西,2.5,94.6,0,0,0,0,0,0,1005.1,1019.6
250,2021-03-15T04:09:00,0.6,西北西,1.2,西北西,2.3,94.1,0,0,0,0,0,0,1005.2,1019.7
251,2021-03-15T04:10:00,0.6,西北西,1.1,西,2.6,94.4,0,0,0,0,0,0,1005.2,1019.7
252,2021-03-15T04:11:00,0.5,西北西,1.1,西,2.5,95,0,0,0,0,0,0,1005.2,1019.7
253,2021-03-15T04:12:00,0.5,西北西,1.1,西,2.2,94,0,0,0,0,0,0,1005.2,1019.7
254,2021-03-15T04:13:00,0.4,西北西,1.1,西,2.3,94.5,0,0,0,0,0,0,1005.2,1019.7
255,2021-03-15T04:14:00,0.5,西北西,1.1,西,2.4,94.7,0,0,0,0,0,0,1005.3,1019.8
256,2021-03-15T04:15:00,0.5,西北西,1.1,西,2.4,95.1,0,0,0,0,0,0,1005.3,1019.8
257,2021-03-15T04:16:00,0.5,西北西,1.1,西,2.4,95.2,0,0,0,0,0,0,1005.3,1019.8
258,2021-03-15T04:17:00,0.4,西北西,1.1,西,2.5,95.2,0,0,0,0,0,0,1005.3,1019.8
259,2021-03-15T04:18:00,0.4,西北西,1,西,2.5,95.3,0,0,0,0,0,0,1005.3,1019.8
260,2021-03-15T04:19:00,0.3,西北西,1,西,2.5,95.4,0,0,0,0,0,0,1005.2,1019.7
261,2021-03-15T04:20:00,0.3,西北西,1,西,2.6,95.4,0,0,0,0,0,0,1005.2,1019.7
262,2021-03-15T04:21:00,0.3,北西,1,西,2.6,95.6,0,0,0,0,0,0,1005.2,1019.7
263,2021-03-15T04:22:00,0.3,西北西,1,西,2.7,95.6,0,0,0,0,0,0,1005.2,1019.7
264,2021-03-15T04:23:00,0.4,西北西,1,西,2.4,95.4,0,0,0,0,0,0,1005.2,1019.7
265,2021-03-15T04:24:00,0.4,西北西,1,西,2.5,95.2,0,0,0,0,0,0,1005.1,1019.6
266,2021-03-15T04:25:00,0.4,西北西,0.9,西,2.5,95.5,0,0,0,0,0,0,1005.2,1019.7
267,2021-03-15T04:26:00,0.4,西北西,1.2,西,2.2,95.1,0,0,0,0,0,0,1005.2,1019.7
268,2021-03-15T04:27:00,0.4,西北西,1.2,西,2.4,95.1,0,0,0,0,0,0,1005.2,1019.7
269,2021-03-15T04:28:00,0.3,西北西,1.2,西,2.5,95.4,0,0,0,0,0,0,1005.2,1019.7
270,2021-03-15T04:29:00,0.3,西北西,1.2,西,2.1,95.1,0,0,0,0,0,0,1005.2,1019.7
271,2021-03-15T04:30:00,0.4,西北西,1.2,西,2.5,95.2,0,0,0,0,0,0,1005.2,1019.7
272,2021-03-15T04:31:00,0.4,西,1.2,西,2.5,95.6,0,0,0,0,0,0,1005.2,1019.7
273,2021-03-15T04:32:00,0.4,西北西,1.2,西,2.4,95.7,0,0,0,0,0,0,1005.3,1019.8
274,2021-03-15T04:33:00,0.5,西北西,1.3,北西,2.5,95.7,0,0,0,0,0,0,1005.3,1019.8
275,2021-03-15T04:34:00,0.5,西北西,1.3,北西,2.6,95.6,0,0,0,0,0,0,1005.2,1019.7
276,2021-03-15T04:35:00,0.5,西北西,1.3,北西,2.4,95.7,0,0,0,0,0,0,1005.2,1019.7
277,2021-03-15T04:36:00,0.4,西北西,1.3,北西,2.2,95.5,0,0,0,0,0,0,1005.2,1019.7
278,2021-03-15T04:37:00,0.5,西北西,1.3,北西,2.2,95.3,0,0,0,0,0,0,1005.2,1019.7
279,2021-03-15T04:38:00,0.6,西北西,1.3,北西,2.3,95.5,0,0,0,0,0,0,1005.2,1019.7
280,2021-03-15T04:39:00,0.6,西北西,1.4,西,1.9,95.1,0,0,0,0,0,0,1005.2,1019.8
281,2021-03-15T04:40:00,0.6,西北西,1.4,西,2,94.6,0,0,0,0,0,0,1005.2,1019.8
282,2021-03-15T04:41:00,0.6,西,1.4,西,2,95.3,0,0,0,0,0,0,1005.2,1019.8
283,2021-03-15T04:42:00,0.6,西,1.4,西,2.3,95.5,0,0,0,0,0,0,1005.2,1019.7
284,2021-03-15T04:43:00,0.5,西,1.4,西,2.2,96,0,0,0,0,0,0,1005.2,1019.7
285,2021-03-15T04:44:00,0.4,西,1.4,西,2.4,95.9,0,0,0,0,0,0,1005.3,1019.8
286,2021-03-15T04:45:00,0.5,西,1.4,西,2.3,95.9,0,0,0,0,0,0,1005.3,1019.8
287,2021-03-15T04:46:00,0.5,西,1.4,西,2.4,95.8,0,0,0,0,0,0,1005.3,1019.8
288,2021-03-15T04:47:00,0.5,西,1.4,西,2.2,95.8,0,0,0,0,0,0,1005.3,1019.8
289,2021-03-15T04:48:00,0.5,西,1.4,西,2.3,95.6,0,0,0,0,0,0,1005.3,1019.8
290,2021-03-15T04:49:00,0.4,西,1.1,西北西,2.5,95.8,0,0,0,0,0,0,1005.3,1019.8
291,2021-03-15T04:50:00,0.4,西,1.1,西北西,2.4,95.9,0,0,0,0,0,0,1005.3,1019.8
292,2021-03-15T04:51:00,0.3,西北西,1.1,西北西,2.3,95.8,0,0,0,0,0,0,1005.3,1019.8
293,2021-03-15T04:52:00,0.3,西北西,1.1,西北西,2.4,95.8,0,0,0,0,0,0,1005.4,1019.9
294,2021-03-15T04:53:00,0.3,西北西,1.1,西北西,2.4,95.8,0,0,0,0,0,0,1005.4,1019.9
295,2021-03-15T04:54:00,0.4,西北西,1.2,北西,2.5,95.9,0,0,0,0,0,0,1005.4,1019.9
296,2021-03-15T04:55:00,0.4,西北西,1.4,北,2.5,95.9,0,0,0,0,0,0,1005.3,1019.8
297,2021-03-15T04:56:00,0.4,北西,1.4,北,2.5,95.9,0,0,0,0,0,0,1005.4,1019.9
298,2021-03-15T04:57:00,0.4,北北西,1.4,北,2.4,95.9,0,0,0,0,0,0,1005.4,1019.9
299,2021-03-15T04:58:00,0.4,北北西,1.4,北,2.5,96,0,0,0,0,0,0,1005.4,1019.9
300,2021-03-15T04:59:00,0.5,北,1.4,北,2.4,95.9,0,0,0,0,0,0,1005.5,1020
301,2021-03-15T05:00:00,0.5,北,1.4,北,2.5,95.8,0,0,0,0,0,0,1005.4,1019.9
302,2021-03-15T05:01:00,0.6,北北東,1.4,北,2.4,96,0,0,0,0,0,0,1005.5,1020
303,2021-03-15T05:02:00,0.6,北北東,1.4,北,2.4,95.9,0,0,0,0,0,0,1005.5,1020
304,2021-03-15T05:03:00,0.6,北北東,1.4,北,2.6,96,0,0,0,0,0,0,1005.5,1020
305,2021-03-15T05:04:00,0.5,北北東,1.4,北,2.4,96,0,0,0,0,0,0,1005.4,1019.9
306,2021-03-15T05:05:00,0.5,北,1.2,北北東,2.4,95.7,0,0,0,0,0,0,1005.4,1019.9
307,2021-03-15T05:06:00,0.4,北,1.1,北北東,2.4,95.8,0,0,0,0,0,0,1005.4,1019.9
308,2021-03-15T05:07:00,0.3,北,1.1,北北東,2.3,95.8,0,0,0,0,0,0,1005.5,1020
309,2021-03-15T05:08:00,0.3,北,1.1,北北東,2,95.5,0,0,0,0,0,0,1005.5,1020.1
310,2021-03-15T05:09:00,0.3,北,1.1,北北東,1.9,95.2,0,0,0,0,0,0,1005.5,1020.1
311,2021-03-15T05:10:00,0.2,静穏,1.1,北北東,2.1,95.4,0,0,0,0,0,0,1005.5,1020
312,2021-03-15T05:11:00,0.1,静穏,0.8,北北東,2.3,95.9,0,0,0,0,0,0,1005.5,1020
313,2021-03-15T05:12:00,0.1,静穏,0.6,西,2,96,0,0,0,0,0,0,1005.6,1020.2
314,2021-03-15T05:13:00,0.1,静穏,0.6,西,1.8,95.6,0,0,0,0,0,0,1005.6,1020.2
315,2021-03-15T05:14:00,0.1,静穏,0.6,西,2.1,95.5,0,0,0,0,0,0,1005.6,1020.2
316,2021-03-15T05:15:00,0.1,静穏,0.5,東北東,2.3,96,0,0,0,0,0,0,1005.6,1020.1
317,2021-03-15T05:16:00,0.1,静穏,0.5,東北東,2.4,96.3,0,0,0,0,0,0,1005.6,1020.1
318,2021-03-15T05:17:00,0.1,静穏,0.7,南西,2.4,96.2,0,0,0,0,0,0,1005.7,1020.2
319,2021-03-15T05:18:00,0.1,静穏,0.8,北西,2.2,96.1,0,0,0,0,0,0,1005.7,1020.2
320,2021-03-15T05:19:00,0.1,静穏,0.8,北西,2.1,95.9,0,0,0,0,0,0,1005.7,1020.3
321,2021-03-15T05:20:00,0.1,静穏,0.8,北西,2.3,96,0,0,0,0,0,0,1005.7,1020.2
322,2021-03-15T05:21:00,0.1,静穏,0.8,北西,2.1,96.1,0,0,0,0,0,0,1005.7,1020.3
323,2021-03-15T05:22:00,0.1,静穏,0.8,北西,1.9,95.7,0,0,0,0,0,0,1005.7,1020.3
324,2021-03-15T05:23:00,0.1,静穏,0.8,北西,2,95.7,0,0,0,0,0,0,1005.7,1020.3
325,2021-03-15T05:24:00,0.2,静穏,0.8,北西,2,95.8,0,0,0,0,0,0,1005.8,1020.4
326,2021-03-15T05:25:00,0.2,静穏,0.8,北西,2,95.9,0,0,0,0,0,0,1005.8,1020.4
327,2021-03-15T05:26:00,0.2,静穏,0.8,北西,1.9,95.9,0,0,0,0,0,0,1005.8,1020.4
328,2021-03-15T05:27:00,0.2,静穏,1,西,1.8,95.7,0,0,0,0,0,0,1005.8,1020.4
329,2021-03-15T05:28:00,0.2,静穏,1,西,2.2,95.9,0,0,0,0,0,0,1005.8,1020.3
330,2021-03-15T05:29:00,0.2,静穏,1,西,2.2,96.2,0,0,0,0,0,0,1005.8,1020.3
331,2021-03-15T05:30:00,0.2,静穏,1,西,2.3,96.3,0,0,0,0,0,0,1005.8,1020.3